Weather History for SKNV - September, 2013

Change the Weather History Date:

Tuesday, September 10, 2013

  Actual Average Record
Temperature  
Mean Temperature 82 °F -  
Max Temperature 92 °F 93 °F - ()
Min Temperature 71 °F 73 °F - ()
Cooling Degree Days 16    
Growing Degree Days 32 (Base 50)    
Moisture  
Dew Point 62 °F    
Average Humidity 46    
Maximum Humidity 78    
Minimum Humidity 28    
Precipitation  
Precipitation 0.00 in 0.14 in - ()
Sea Level Pressure  
Sea Level Pressure 29.88 in    
Wind  
Wind Speed 5 mph ()    
Max Wind Speed 16 mph    
Max Gust Speed -    
Visibility 6.9 miles    
Events      
T = Trace of Precipitation, MM = Missing Value Source: Averaged Metar Reports

Daily Weather History Graph

Daily Weather History Graph

Search for Another Location

Airport or City:

Trip Planner

Search our weather history database for the weather conditions in past years. The results will help you decide how hot, cold, wet, or windy it might be!

Date:

Astronomy

Sep. 10, 2013 Rise Set
Actual Time 5:53 AM COT 6:02 PM COT
Civil Twilight 5:33 AM COT 6:23 PM COT
Nautical Twilight 5:08 AM COT 6:47 PM COT
Astronomical Twilight 4:44 AM COT 7:11 PM COT
Moon 10:02 AM COT (9/10) 10:20 PM COT (9/10)
Length of Visible Light 12h 49m
Length of Day
12h 08m
Waxing Crescent, 28% of the Moon is Illuminated
Sep 10
Waxing Crescent
Sep 12
First Quarter
Sep 19
Full
Sep 26
Last Quarter
Oct 4
New

Hourly Weather History & Observations

Time (COT) Temp. Heat Index Dew Point Humidity Pressure Visibility Wind Dir Wind Speed Gust Speed Precip Events Conditions
6:00 AM 75.2 °F - 68.0 °F 78% 29.91 in 6.2 mi Calm Calm - N/A   Mostly Cloudy
7:00 AM 77 °F - 65 °F 58% 29.87 in 9 mi Calm Calm - -   Overcast
7:00 AM 77.0 °F - 64.4 °F 65% 29.94 in 6.2 mi Calm Calm - N/A   Mostly Cloudy
8:00 AM 78.8 °F - 64.4 °F 61% 29.98 in 6.2 mi Calm Calm - N/A   Mostly Cloudy
9:00 AM 78.8 °F - 64.4 °F 61% 30.00 in 6.2 mi Variable 2.3 mph - N/A   Mostly Cloudy
10:00 AM 82 °F - 63 °F 43% 29.90 in 9 mi South 4.5 mph - -  
10:00 AM 82.4 °F 83.4 °F 62.6 °F 51% 30.00 in 6.2 mi South 4.6 mph - N/A   Mostly Cloudy
11:00 AM 84.2 °F 85.0 °F 62.6 °F 48% 29.99 in 6.2 mi South 11.5 mph - N/A   Mostly Cloudy
12:00 PM 86.0 °F 86.6 °F 62.6 °F 45% 29.96 in 6.2 mi South 6.9 mph - N/A   Mostly Cloudy
1:00 PM 89 °F - 60 °F 28% 29.82 in 9 mi South 15.7 mph - -   Scattered Clouds
1:00 PM 89.6 °F 89.5 °F 60.8 °F 38% 29.92 in 6.2 mi South 15.0 mph - N/A   Mostly Cloudy
2:00 PM 89.6 °F 89.5 °F 60.8 °F 38% 29.86 in 6.2 mi South 12.7 mph - N/A   Scattered Clouds
3:00 PM 89.6 °F 89.5 °F 60.8 °F 38% 29.82 in 6.2 mi South 13.8 mph - N/A   Mostly Cloudy
4:00 PM 90 °F - 62 °F 29% 29.71 in 9 mi South 13.4 mph - -   Scattered Clouds
4:00 PM 89.6 °F 89.5 °F 60.8 °F 38% 29.81 in 6.2 mi South 13.8 mph - N/A   Scattered Clouds
5:00 PM 87.8 °F 87.1 °F 59.0 °F 38% 29.80 in 6.2 mi South 13.8 mph - N/A   Scattered Clouds
6:00 PM 86.0 °F 86.1 °F 60.8 °F 43% 29.82 in 6.2 mi South 9.2 mph - N/A   Mostly Cloudy
7:00 PM 85 °F - 60 °F 32% 29.75 in 9 mi SSE 8.9 mph - -   Scattered Clouds
7:00 PM 86.0 °F 85.4 °F 59.0 °F 40% 29.85 in 6.2 mi SSE 9.2 mph - N/A   Mostly Cloudy
8:00 PM 84.2 °F 84.4 °F 60.8 °F 45% 29.89 in 6.2 mi SSE 4.6 mph - N/A   Scattered Clouds
9:00 PM 82.4 °F 82.9 °F 60.8 °F 48% 29.92 in 6.2 mi SSE 3.5 mph - N/A   Scattered Clouds
10:00 PM 82 °F - 61 °F 38% 29.85 in 9 mi SSE 6.7 mph - -   Scattered Clouds
10:00 PM 82.4 °F 82.9 °F 60.8 °F 48% 29.93 in 6.2 mi SSE 5.8 mph - N/A   Scattered Clouds
11:00 PM 80.6 °F 81.5 °F 60.8 °F 51% 29.93 in 6.2 mi SSE 5.8 mph - N/A   Scattered Clouds